TimeAKST,TemperatureF,Dew PointF,Humidity,Sea Level PressureIn,VisibilityMPH,Wind Direction,Wind SpeedMPH,Gust SpeedMPH,PrecipitationIn,Events,Conditions,WindDirDegrees,DateUTC
12:20 AM,17.6,14.0,86,29.58,2.0,ENE,9.2,-,0.01,Snow,Light Snow,70,2013-01-31 09:20:00
12:49 AM,17.6,14.0,86,29.58,2.0,ENE,5.8,-,0.01,Snow,Light Snow,70,2013-01-31 09:49:00
12:53 AM,18.0,14.0,84,29.59,2.0,ENE,5.8,-,0.02,Snow,Light Snow,70,2013-01-31 09:53:00
1:53 AM,18.0,14.0,84,29.62,2.0,East,9.2,-,0.00,Snow,Light Snow,80,2013-01-31 10:53:00
2:00 AM,17.6,14.0,86,29.61,6.0,East,10.4,-,0.00,Snow,Light Snow,80,2013-01-31 11:00:00
3:00 AM,17.6,14.0,86,29.62,2.5,ENE,11.5,-,0.00,Snow,Light Snow,70,2013-01-31 12:00:00
3:45 AM,17.6,12.2,79,29.63,4.0,East,11.5,-,0.01,Snow,Light Snow,80,2013-01-31 12:45:00
3:53 AM,17.1,12.9,84,29.64,5.0,ENE,10.4,-,0.01,Snow,Light Snow,70,2013-01-31 12:53:00
4:05 AM,17.6,12.2,79,29.64,9.0,ENE,12.7,-,0.00,Snow,Light Snow,70,2013-01-31 13:05:00
4:22 AM,17.6,12.2,79,29.63,4.0,East,11.5,-,0.00,Snow,Light Snow,80,2013-01-31 13:22:00
4:46 AM,17.6,12.2,79,29.64,6.0,East,11.5,-,0.00,Snow,Light Snow,80,2013-01-31 13:46:00
4:53 AM,17.1,12.9,84,29.65,6.0,ENE,13.8,-,0.00,Snow,Light Snow,70,2013-01-31 13:53:00
5:53 AM,18.0,14.0,84,29.66,6.0,East,11.5,-,0.00,Snow,Light Snow,80,2013-01-31 14:53:00
6:38 AM,17.6,14.0,86,29.66,9.0,East,11.5,-,0.00,Snow,Light Snow,80,2013-01-31 15:38:00
6:53 AM,18.0,14.0,84,29.68,5.0,East,11.5,-,0.00,Snow,Light Snow,80,2013-01-31 15:53:00
7:17 AM,17.6,14.0,86,29.69,2.5,East,12.7,-,0.00,Snow,Light Snow,80,2013-01-31 16:17:00
7:53 AM,18.0,15.1,88,29.68,2.0,ENE,11.5,-,0.01,Snow,Light Snow,70,2013-01-31 16:53:00
8:00 AM,17.6,15.8,93,29.67,5.0,East,10.4,-,0.00,Snow,Light Snow,80,2013-01-31 17:00:00
8:53 AM,19.0,16.0,88,29.68,8.0,East,10.4,-,0.00,Snow,Light Snow,100,2013-01-31 17:53:00
9:41 AM,19.4,17.6,93,29.69,2.0,SSW,15.0,-,0.00,Snow,Light Snow,200,2013-01-31 18:41:00
9:53 AM,19.9,17.1,89,29.70,4.0,SSW,11.5,-,0.00,Snow,Light Snow,200,2013-01-31 18:53:00
10:53 AM,19.0,16.0,88,29.73,5.0,SSW,10.4,-,0.00,Snow,Light Snow,210,2013-01-31 19:53:00
11:30 AM,17.6,15.8,93,29.73,10.0,SW,10.4,-,0.00,,Overcast,220,2013-01-31 20:30:00
11:53 AM,18.0,15.1,88,29.75,10.0,SW,5.8,-,0.00,,Overcast,220,2013-01-31 20:53:00
12:53 PM,17.1,14.0,88,29.78,10.0,SW,10.4,-,N/A,,Overcast,230,2013-01-31 21:53:00
1:20 PM,15.8,12.2,86,29.79,10.0,WSW,5.8,-,N/A,,Overcast,250,2013-01-31 22:20:00
1:45 PM,15.8,14.0,93,29.81,10.0,WSW,6.9,-,N/A,,Overcast,250,2013-01-31 22:45:00
1:53 PM,16.0,14.0,92,29.81,10.0,WSW,4.6,-,N/A,,Overcast,250,2013-01-31 22:53:00
2:11 PM,15.8,14.0,93,29.82,10.0,SW,9.2,-,N/A,,Overcast,220,2013-01-31 23:11:00
2:53 PM,14.0,10.9,88,29.84,10.0,WSW,12.7,-,0.00,,Mostly Cloudy,250,2013-01-31 23:53:00
3:17 PM,12.2,10.4,92,29.86,10.0,West,8.1,-,N/A,,Mostly Cloudy,260,2013-02-01 00:17:00
3:53 PM,10.9,8.1,88,29.87,10.0,WNW,4.6,-,N/A,,Mostly Cloudy,290,2013-02-01 00:53:00
4:53 PM,8.1,5.0,87,29.90,5.0,West,8.1,-,N/A,,Mostly Cloudy,260,2013-02-01 01:53:00
5:53 PM,5.0,1.9,87,29.91,10.0,Calm,Calm,-,N/A,,Mostly Cloudy,0,2013-02-01 02:53:00
6:53 PM,3.9,1.0,88,29.95,10.0,WSW,11.5,-,N/A,,Mostly Cloudy,240,2013-02-01 03:53:00
7:53 PM,5.0,1.9,87,29.99,10.0,WNW,5.8,-,N/A,,Mostly Cloudy,290,2013-02-01 04:53:00
8:53 PM,3.9,1.0,88,30.00,10.0,West,8.1,-,N/A,,Scattered Clouds,270,2013-02-01 05:53:00
9:53 PM,-0.9,-2.9,91,30.02,10.0,West,3.5,-,N/A,,Clear,280,2013-02-01 06:53:00
10:53 PM,-5.1,-8.0,87,30.04,10.0,Calm,Calm,-,N/A,,Clear,0,2013-02-01 07:53:00
11:53 PM,-7.1,-9.9,87,30.07,10.0,Calm,Calm,-,N/A,,Clear,0,2013-02-01 08:53:00